DECAYED

STARLINK-32286, 60357 (Decayed)

Orbit data source: Space-Track

STARLINK-32286, 60357 was a payload satellite owned by SpaceX/Seattle (US) in LEO that was launched on Sun, 04 Aug 2024 UTC via an FALCON 9 launch vehicle from the Air Force Western Test Range (AFWTR). Payload-class satellites include a variety of spacecraft equipped with specific instruments for various scientific and technological missions. These include communications satellites like Starlink; space stations such as the ISS; scientific satellites like the Hubble; Earth observation satellites from companies like Planet Labs, Umbra, and HawkEye 360; GPS; miniature CubeSats for education and research; and military/defense satellites.

Not visible in the next 10 days
Identifier
60357, 2024-138C
Orbit
Decayed
Last TLE update
9 months ago
Origin
Manufacturer
SpaceX/Seattle
Mission
Decayed Commercial Communications
Bus & Motor
STARLINK V2M, Unknown motor
Mass
730 kg wet, ~700 kg dry
Launch date (UTC)
2024-08-04 (11 months ago)
Launch vehicle
FALCON 9
Launch site
Air Force Western Test Range (AFWTR)
Object type
Payload
Rocket body
Debris
Shape & HBR
Box + 2 Pan, 29 m
Radar Cross Section
33.884 m², Large (>1 m²)

Expand to show TLE details & history

TLE from 9 months ago
0 STARLINK-32286
1 60357U 24138C   24280.15845963  .06746780  12109-4  10112-2 0  9998
2 60357  53.1358 195.8207 0006605 219.3322 291.0670 16.33524131 11162
Epoch: 2024-10-06T03:48Z
TLE epoch observation values (Epoch: 2024-10-06T03:48:10.912Z)
Latitude
23.39498°
Longitude
-75.34609°
Altitude
182.34 km
Speed
7.801 km/s
True Right ascension
23h 48m 00s
True Declination
23° 15' 32"
Sunlit
Object was in full shadow at epoch
Visualization orbit readout
Visualization observer readout
Orbital elements
Apogee altitude
187.692 km
Perigee altitude
179.024 km
Semi-major axis
6,561.495 km
Eccentricity
0.00066
Inclination
53.1358°
RAAN
195.8207°
Arg. of periapsis
219.3322°
True anomaly
Unknown
Mean anomaly
291.067°
Eccentric anomaly
Unknown
Mean motion
4.08356 °/min
Orbital period
88.16 mins
BSTAR
0.0010112
Loading maneuver chart data...
Loading SW <> Apogee altitude chart data...
Loading historical data...
Loading historical data...
Loading historical data...
Loading historical data...
Loading historical data...
Loading historical data...
Loading historical data...

STARLINK-32286 Visibility

Observer location: undefined°, undefined°

This satellite is decayed
Span
Click to sort rows by Start time (UTC) header in descending order
Start Az.
Max El. time (UTC)
Max El. Az.
Max El.
End time (UTC)
End Az.
|